This is the latest recevied weather packets stored in our database for station/object K4AMF. If no packets are shown the sender has not sent any weather packets the latest 10 day(s).
| Time | Temp. | Humidity | Pressure | Rain* | Wind** | Luminosity | Snow |
|---|---|---|---|---|---|---|---|
| 1777575190 | 29.44° C | 63% | 1010.3 hPa | 0 mm | - | 281 W/m² | - |
| 1777574886 | 29.44° C | 63% | 1010.4 hPa | 0 mm | - | 225 W/m² | - |
| 1777574583 | 29.44° C | 63% | 1010.5 hPa | 0 mm | - | 142 W/m² | - |
| 1777574279 | 29.44° C | 65% | 1010.2 hPa | 0 mm | - | 138 W/m² | - |
| 1777573975 | 29.44° C | 65% | 1010.1 hPa | 0 mm | - | 203 W/m² | - |
| 1777573669 | 30° C | 64% | 1010.5 hPa | 0 mm | - | 521 W/m² | - |
| 1777573366 | 30° C | 63% | 1010.2 hPa | 0 mm | - | 524 W/m² | - |
| 1777573061 | 30° C | 64% | 1010.5 hPa | 0 mm | - | 746 W/m² | - |
| 1777572759 | 28.89° C | 69% | 1010.4 hPa | 0 mm | - | 739 W/m² | - |
| 1777572453 | 27.78° C | 72% | 1010.5 hPa | 0 mm | - | 437 W/m² | - |
| 1777572150 | 27.78° C | 73% | 1010.8 hPa | 0 mm | - | 613 W/m² | - |
| 1777571845 | 28.33° C | 70% | 1010.9 hPa | 0 mm | - | 441 W/m² | - |
| 1777571541 | 28.33° C | 69% | 1011 hPa | 0 mm | - | 248 W/m² | - |
| 1777571238 | 28.33° C | 69% | 1010.8 hPa | 0 mm | - | 118 W/m² | - |
| 1777570934 | 28.33° C | 69% | 1010.8 hPa | 0 mm | - | 235 W/m² | - |
| 1777570630 | 28.33° C | 69% | 1010.7 hPa | 0 mm | - | 327 W/m² | - |
| 1777570327 | 28.33° C | 68% | 1010.8 hPa | 0 mm | - | 235 W/m² | - |
| 1777570023 | 28.33° C | 68% | 1011 hPa | 0 mm | - | 223 W/m² | - |
| 1777569719 | 28.33° C | 68% | 1010.9 hPa | 0 mm | - | 183 W/m² | - |
| 1777569414 | 28.33° C | 68% | 1011.2 hPa | 0 mm | - | 219 W/m² | - |
| 1777569111 | 28.33° C | 69% | 1011.2 hPa | 0 mm | - | 135 W/m² | - |
| 1777568808 | 28.33° C | 69% | 1011.3 hPa | 0 mm | - | 170 W/m² | - |
| 1777568506 | 28.33° C | 69% | 1011.4 hPa | 0 mm | - | 218 W/m² | - |
| 1777568201 | 28.89° C | 69% | 1011.5 hPa | 0 mm | - | 430 W/m² | - |
| 1777567899 | 28.89° C | 68% | 1011.5 hPa | 0 mm | - | 371 W/m² | - |
* Rain latest hour (hover to see other rain measurements)
** Current wind speed in m/s (hover to see current wind gust speed)